Billings, MT

8:08 PM MST on February 20, 2017 (GMT -0700)
Billings Logan International

Weather History for KBIL - February, 2012

Change the Weather History Date:

Monday, February 6, 2012

  Actual Average Record
Temperature  
Mean Temperature 26 °F 29 °F  
Max Temperature 30 °F 38 °F 69 °F (2015)
Min Temperature 21 °F 19 °F -23 °F (2014)
Degree Days  
Heating Degree Days 39 36  
Month to date heating degree days 197 219  
Since 1 July heating degree days 3700 4215  
Cooling Degree Days 0 0  
Month to date cooling degree days 0 0  
Year to date cooling degree days 0 0  
Moisture  
Dew Point 20 °F    
Average Humidity 75    
Maximum Humidity 96    
Minimum Humidity 53    
Precipitation  
Precipitation 0.01 in 0.02 in 0.18 in (1959)
Month to date precipitation 0.01 0.10  
Year to date precipitation 0.62 0.58  
Snow  
Snow 0.10 in 0.20 in 3.10 in (2001)
Month to date snowfall 0.1 1.3  
Since 1 July snowfall 25.0 29.6  
Snow Depth 0.00 in    
Sea Level Pressure  
Sea Level Pressure 30.44 in    
Wind  
Wind Speed 9 mph (NNE)    
Max Wind Speed 17 mph    
Max Gust Speed 25 mph    
Visibility 9 miles    
Events Snow    
T = Trace of Precipitation, MM = Missing Value Source: NWS Daily Summary

Daily Weather History Graph

Daily Weather History Graph

Search for Another Location

Airport or City:

Trip Planner

Search our weather history database for the weather conditions in past years. The results will help you decide how hot, cold, wet, or windy it might be!

Date:

Astronomy

Feb. 06, 2012 Rise Set
Actual Time 7:30 AM MST 5:26 PM MST
Civil Twilight 6:58 AM MST 5:58 PM MST
Nautical Twilight 6:23 AM MST 6:33 PM MST
Astronomical Twilight 5:48 AM MST 7:08 PM MST
Moon 4:33 PM MST (2/6) 6:25 AM MST (2/6)
Length of Visible Light 10h 59m
Length of Day
9h 56m
Waxing Gibbous, 98% of the Moon is Illuminated
Feb 6
Waxing Gibbous
Feb 7
Full
Feb 14
Last Quarter
Feb 21
New
Feb 29
First Quarter

Hourly Weather History & Observations

Time (MST) Temp. Windchill Dew Point Humidity Pressure Visibility Wind Dir Wind Speed Gust Speed Precip Events Conditions
12:53 AM 24.1 °F 15.2 °F 14.0 °F 65% 30.25 in 10.0 mi SSW 8.1 mph - N/A   Clear
1:53 AM 25.0 °F 17.1 °F 14.0 °F 63% 30.27 in 10.0 mi WSW 6.9 mph - N/A   Clear
2:53 AM 27.0 °F 18.7 °F 16.0 °F 63% 30.28 in 10.0 mi North 8.1 mph - N/A   Clear
3:53 AM 25.0 °F - 15.1 °F 66% 30.31 in 10.0 mi Calm Calm - N/A   Clear
4:53 AM 24.1 °F 19.7 °F 15.1 °F 69% 30.34 in 10.0 mi WSW 3.5 mph - N/A   Clear
5:53 AM 26.1 °F 17.6 °F 18.0 °F 71% 30.37 in 10.0 mi North 8.1 mph - N/A   Partly Cloudy
6:25 AM 24.8 °F 16.9 °F 19.4 °F 80% 30.29 in 10.0 mi North 6.9 mph - N/A   Mostly Cloudy
6:53 AM 28.0 °F 20.8 °F 21.9 °F 78% 30.39 in 10.0 mi North 6.9 mph - N/A   Mostly Cloudy
7:53 AM 28.0 °F 22.8 °F 23.0 °F 81% 30.40 in 10.0 mi WNW 4.6 mph - N/A   Overcast
8:53 AM 30.0 °F 22.4 °F 24.1 °F 79% 30.41 in 10.0 mi North 8.1 mph - 0.00 in Snow Light Snow
8:59 AM 30.2 °F 21.9 °F 24.8 °F 80% 30.33 in 10.0 mi North 9.2 mph - 0.00 in Snow Light Snow
9:53 AM 28.9 °F 18.6 °F 21.0 °F 72% 30.45 in 10.0 mi North 12.7 mph - 0.00 in Snow Light Snow
10:02 AM 28.4 °F 17.5 °F 21.2 °F 74% 30.34 in 10.0 mi NNE 13.8 mph - 0.00 in Snow Light Snow
10:25 AM 28.4 °F 18.0 °F 21.2 °F 74% 30.35 in 10.0 mi North 12.7 mph - 0.00 in Snow Light Snow
10:53 AM 28.9 °F 18.6 °F 19.9 °F 69% 30.47 in 10.0 mi North 12.7 mph - 0.00 in   Overcast
11:53 AM 30.0 °F 21.1 °F 19.0 °F 64% 30.48 in 10.0 mi NNE 10.4 mph - N/A   Overcast
12:53 PM 28.9 °F 18.6 °F 21.0 °F 72% 30.49 in 10.0 mi NNE 12.7 mph - 0.00 in Snow Light Snow
1:53 PM 28.9 °F 17.7 °F 18.0 °F 64% 30.49 in 10.0 mi North 15.0 mph - 0.00 in   Overcast
2:53 PM 28.0 °F 17.5 °F 19.0 °F 69% 30.51 in 6.0 mi NNE 12.7 mph - 0.00 in Snow Light Snow
3:53 PM 28.0 °F 19.3 °F 19.0 °F 69% 30.52 in 9.0 mi ENE 9.2 mph - 0.00 in Snow Light Snow
4:53 PM 27.0 °F 18.0 °F 19.9 °F 75% 30.53 in 7.0 mi ENE 9.2 mph - 0.00 in Snow Light Snow
5:53 PM 26.1 °F 17.6 °F 19.9 °F 78% 30.54 in 9.0 mi ENE 8.1 mph - 0.00 in Snow Light Snow
6:53 PM 25.0 °F 16.3 °F 21.0 °F 85% 30.55 in 9.0 mi ENE 8.1 mph - 0.00 in Snow Light Snow
7:53 PM 24.1 °F 15.2 °F 19.9 °F 84% 30.57 in 9.0 mi ENE 8.1 mph - 0.00 in Snow Light Snow
8:36 PM 24.8 °F 14.6 °F 19.4 °F 80% 30.44 in 9.0 mi ENE 10.4 mph - 0.00 in Snow Light Snow
8:53 PM 24.1 °F 14.4 °F 19.0 °F 81% 30.57 in 8.0 mi NE 9.2 mph - 0.00 in Snow Light Snow
9:14 PM 23.0 °F 14.7 °F 19.4 °F 86% 30.45 in 5.0 mi NE 6.9 mph - 0.00 in Snow Light Snow
9:34 PM 23.0 °F 15.8 °F 21.2 °F 93% 30.45 in 8.0 mi NE 5.8 mph - 0.00 in Snow Light Snow
9:53 PM 23.0 °F 15.8 °F 21.0 °F 92% 30.58 in 7.0 mi NE 5.8 mph - 0.00 in Snow Light Snow
10:02 PM 23.0 °F 15.8 °F 21.2 °F 93% 30.45 in 8.0 mi NNE 5.8 mph - 0.00 in Snow Light Snow
10:53 PM 23.0 °F 13.1 °F 21.0 °F 92% 30.58 in 4.0 mi NE 9.2 mph - 0.01 in Snow Light Snow
11:40 PM 21.2 °F 10.9 °F 19.4 °F 93% 30.45 in 6.0 mi ENE 9.2 mph - 0.00 in Snow Light Snow
11:53 PM 21.9 °F 11.0 °F 19.9 °F 92% 30.58 in 9.0 mi ENE 10.4 mph - 0.00 in Snow Light Snow